SCP
0 0 0 0 0 0 0 0 0 0 0 0 0 0 0 -0 0 -0 -0 -0 0 -0 0 0 0 0 1 0 0 0 0 0 0 0 0 0 0 0 -0 -0 -0 0 -0
0 0 0 0 0 0 0 0 0 0 0 0 0 0 0 -0 0 0 0 1 0 -0 0 -0 0 0 0 0 0 0 0 0 0 0 -0 0 0 0 -0 -0 -0 -0 -0
0 1 0 0 0 0 0 0 0 0 0 0 0 0 0 0 0 0 0 0 0 -0 0 0 -0 0 0 0 0 0 0 0 0 0 -0 0 0 0 0 -0 -0 0 0
0 1 0 0 1 0 0 0 0 0 0 0 0 0 0 0 0 0 0 0 0 -0 -0 0 0 0 0 0 0 0 0 0 0 0 0 0 0 0 0 -0 -0 0 0
0 0 0 0 1 0 0 0 0 0 0 0 0 0 0 0 0 0 0 0 -0 -0 -0 -0 0 0 0 0 0 0 0 0 0 0 0 0 0 0 0 -0 0 -0 -0
0 0 0 0 1 0 0 0 0 0 0 0 -0 0 0 0 0 0 0 0 -0 -0 -0 -0 0 0 0 0 0 0 0 0 -0 0 0 0 0 0 0 -0 -0 -0 -0
0 0 0 0 0 0 0 0 0 0 0 -0 -0 0 0 0 0 0 0 0 -0 0 0 0 0 0 1 0 0 0 0 0 0 0 0 0 0 0 0 -0 -0 -0 0
0 0 0 0 0 0 0 0 0 0 0 -0 -0 0 0 0 0 0 0 0 0 0 -0 0 0 0 0 0 0 0 0 0 0 0 0 0 0 0 0 0 0 0 -0
0 0 0 0 0 0 0 0 0 0 -0 0 0 -0 -0 -0 -0 0 0 0 0 0 0 0 0 0 0 0 0 0 0 0 0 0 0 0 0 0 0 0 0 0 0
0 0 0 0 0 0 0 0 0 -0 -0 0 -0 -0 -0 -0 -0 -0 0 0 0 0 0 0 0 0 0 0 0 0 0 0 0 0 0 0 0 0 0 0 0 0 -0
0 0 0 0 0 0 0 0 0 0 0 -0 0 0 -0 0 0 -0 -0 0 0 0 0 0 0 0 0 0 0 0 0 0 0 0 0 0 0 0 0 0 0 0 0
-0 0 0 0 0 0 0 0 0 0 -0 -0 -0 0 -0 0 0 -0 -0 0 -0 0 0 0 0 0 0 -0 -0 -0 0 0 0 0 0 0 0 0 0 0 0 0 0
0 0 0 0 0 0 0 0 0 0 0 0 0 -0 0 -0 0 0 -0 -0 -0 0 0 0 0 0 0 0 -0 0 -0 0 0 0 0 0 0 0 0 0 0 0 0
0 0 0 0 0 0 0 0 -0 0 0 0 0 0 -0 0 0 0 0 0 0 0 0 -0 0 -0 0 0 0 0 -0 -0 0 0 0 0 0 0 0 0 0 0 0
0 0 0 0 0 0 0 0 -0 -0 0 0 0 -0 0 0 -0 0 0 0 -0 0 0 -0 -0 -0 0 0 -0 -0 -0 -0 -0 0 0 0 0 0 0 0 0 0 0
0 0 0 0 0 0 0 0 0 0 0 0 -0 0 0 0 -0 -0 0 0 0 0 0 -0 -0 -0 -0 -0 -0 -0 -0 -0 -0 0 0 0 0 0 0 0 0 -0 -0
0 -0 -0 -0 0 0 0 0 0 0 0 0 0 0 0 0 -0 -0 -0 0 0 0 0 -0 -0 -0 -0 0 -0 0 -0 0 -0 -0 -0 -0 -0 0 -0 -0 -0 -0 -0
0 0 0 0 0 -0 0 0 0 0 0 0 0 0 0 0 0 0 -0 -0 -0 0 0 0 0 -0 0 0 0 -0 -0 -0 -0 -0 -0 -0 -0 -0 -0 -0 -0 -0 -0
0 0 0 0 0 0 0 0 0 0 0 0 0 0 0 0 0 0 -0 0 0 0 0 -0 0 0 0 0 0 0 0 0 -0 -0 -0 -0 -0 -0 -0 -0 -0 -0 -0
0 0 0 0 0 0 0 0 0 0 0 0 0 0 0 0 0 0 0 0 0 0 0 0 0 0 0 0 0 0 0 0 0 -0 -0 -0 -0 -0 -0 -0 -0 -0 -0
0 0 0 0 0 0 0 0 0 0 0 0 0 0 0 0 0 0 0 0 0 0 0 0 0 0 0 0 0 0 0 0 0 0 0 0 0 0 0 -0 -0 -0 -0
0 0 0 1 0 0 0 0 0 0 0 0 0 0 0 0 0 0 0 0 0 0 0 0 0 0 0 0 0 0 0 0 0 0 0 0 0 0 0 0 0 0 0
0 1 1 1 1 0 0 0 0 0 0 0 1 1 0 0 0 0 0 0 0 0 0 0 0 0 0 0 0 0 0 0 0 0 0 0 0 0 0 0 0 0 0
1 1 1 1 1 0 0 0 0 0 0 0 0 1 1 1 0 0 0 0 0 0 0 0 0 0 0 0 0 0 0 0 0 0 0 0 0 0 0 0 0 0 0
0 0 0 0 0 0 0 0 0 0 0 0 0 0 0 0 0 0 0 0 0 0 0 0 0 0 0 0 0 0 1 0 0 0 0 0 0 0 0 0 0 0 0
0 0 0 0 0 0 0 0 0 0 0 0 0 0 0 0 0 0 0 0 0 0 0 0 0 0 0 0 0 0 0 0 1 0 0 0 0 0 0 0 0 0 0
Wind_Speed_500mb
17 15 16 16 16 16 14 14 15 17 16 13 11 11 10 10 11 12 9 14 16 19 14 17 23 29 33 32 32 33 24 21 22 17 7 8 13 16 21 25 26 32 34
15 13 12 13 11 11 7 9 11 12 10 9 9 8 10 10 14 20 21 19 20 19 15 16 25 30 34 33 32 31 24 22 26 27 21 10 6 10 16 21 24 28 38
14 16 10 11 9 9 9 7 6 8 4 7 9 10 10 15 19 22 17 16 15 16 16 19 26 30 35 34 36 33 27 24 25 29 26 20 16 11 11 15 20 24 34
13 14 12 10 10 11 11 7 7 5 0 5 6 8 12 14 16 15 14 12 19 13 16 20 23 28 36 34 37 36 29 25 26 29 24 19 15 11 10 11 16 21 29
14 15 11 12 14 12 13 11 7 6 5 7 9 9 15 10 15 11 10 10 16 14 18 20 22 26 34 34 37 37 30 29 29 32 29 25 20 12 10 12 14 16 25
14 15 10 10 13 10 11 11 11 9 6 10 8 9 8 5 16 14 16 12 18 10 10 20 20 17 32 35 36 38 31 32 31 34 32 30 29 24 23 18 22 23 27
11 13 7 9 10 7 7 12 9 11 9 14 14 10 9 4 10 14 15 10 21 8 7 16 17 18 20 33 35 37 36 33 31 34 34 31 33 32 34 33 36 32 32
12 5 9 7 8 6 8 6 6 5 9 13 12 10 11 2 10 9 15 7 14 9 7 11 14 19 19 14 33 37 38 34 32 32 33 32 30 31 32 32 31 30 27
10 8 5 3 7 10 7 9 7 6 7 13 17 11 10 15 14 9 16 8 7 6 9 13 18 19 25 22 22 33 38 38 35 32 32 31 29 26 27 26 23 21 18
10 6 4 3 1 4 7 11 10 6 8 10 12 13 9 14 12 8 11 14 12 12 13 11 11 17 16 18 32 37 38 42 41 36 32 29 27 25 22 20 20 17 14
10 8 10 5 2 3 9 6 8 9 11 12 12 10 10 8 10 8 16 13 10 10 11 12 11 11 13 15 17 30 33 39 42 41 37 30 25 24 22 19 17 17 18
10 10 10 13 10 6 6 4 8 10 7 10 11 15 12 6 7 7 10 11 6 8 10 13 10 10 11 12 16 19 23 29 32 34 37 36 30 24 21 19 17 15 13
12 16 13 13 8 11 7 7 11 10 10 8 10 10 12 9 5 9 10 12 13 11 13 12 13 10 11 10 15 16 15 19 21 24 26 29 32 32 29 23 17 13 11
16 19 14 13 13 12 12 10 9 8 10 8 8 6 6 7 8 9 8 12 17 13 6 12 14 8 7 5 11 14 16 19 19 16 16 18 21 22 24 24 22 18 12
16 20 20 17 15 16 17 16 10 12 12 11 10 8 3 11 9 11 12 11 12 20 24 8 12 13 7 4 8 9 12 17 21 20 15 9 13 17 16 15 16 16 13
22 23 21 21 22 20 18 18 13 13 13 9 11 14 9 11 12 15 16 16 16 15 18 10 10 8 2 6 6 8 14 18 18 14 14 12 10 13 15 14 10 8 9
28 30 26 23 21 21 21 22 20 19 16 14 13 15 15 18 14 15 18 15 16 16 15 8 8 12 4 3 1 6 10 7 23 15 14 12 12 12 12 12 10 9 7
31 30 27 27 25 24 22 23 25 18 20 17 16 16 16 12 17 13 10 16 14 15 14 16 15 11 9 7 8 8 8 13 11 17 14 11 10 10 10 10 11 13 15
32 30 31 28 25 25 23 21 23 22 21 20 18 16 14 16 16 13 13 14 12 13 13 12 13 10 11 13 10 12 9 8 6 18 18 12 14 15 14 11 9 10 11
34 30 29 24 25 24 22 21 19 17 20 19 23 22 18 18 20 20 20 20 15 14 12 10 12 14 13 13 12 9 8 5 4 9 5 15 12 13 15 14 12 13 13
27 29 30 27 25 28 22 22 19 19 18 21 21 21 19 26 21 23 18 20 21 18 15 17 15 12 12 11 8 8 9 9 3 6 2 9 8 9 11 14 15 17 18
28 27 26 24 19 23 24 25 28 30 29 28 22 22 22 26 26 24 28 27 26 20 19 16 20 13 13 10 14 10 12 15 14 9 10 9 2 7 9 11 15 19 19
24 24 24 25 25 23 23 25 24 27 30 34 33 26 22 21 23 28 30 28 27 27 25 23 17 15 17 14 17 18 19 12 10 8 8 9 5 2 12 14 16 19 20
29 25 25 25 27 31 30 29 27 28 26 27 37 41 32 29 29 26 19 25 26 24 22 19 24 25 27 28 26 15 17 19 10 9 19 7 6 4 15 15 15 16 17
27 34 33 32 29 28 21 18 19 26 26 20 27 35 39 40 41 34 33 28 21 20 20 24 25 25 22 19 15 13 8 7 9 6 14 9 5 13 15 13 28 27 30
16 11 17 19 21 23 22 28 26 23 20 22 22 22 30 33 34 34 33 32 20 21 20 17 14 12 10 10 12 15 6 5 2 6 9 5 5 8 13 14 24 17 20
Wind_Direction_500mb
83 94 96 98 96 83 80 82 87 105 87 86 75 74 67 41 26 21 10 355 12 18 14 13 2 10 8 0 2 357 9 19 31 40 98 193 225 227 219 219 216 214 213
97 91 91 85 90 81 70 89 106 116 110 78 50 39 27 16 351 10 360 3 8 24 27 13 13 12 13 10 12 6 21 26 44 56 75 83 177 202 208 208 206 206 205
102 88 96 79 84 60 58 68 123 155 102 50 30 17 23 7 8 17 15 11 31 27 26 21 16 11 18 19 18 14 25 31 44 54 64 73 88 121 168 185 195 198 198
96 74 94 90 83 70 66 92 118 140 342 12 17 2 353 355 342 340 5 9 18 32 17 13 17 15 20 24 23 21 29 39 48 54 61 69 85 103 133 156 173 183 190
117 89 105 100 81 71 63 74 87 89 34 358 346 335 330 348 350 346 334 8 356 14 13 19 17 18 22 27 30 28 34 44 50 60 62 68 77 95 122 137 163 164 170
124 98 106 110 80 76 58 69 74 57 25 2 345 327 329 343 354 7 2 338 327 316 33 6 15 10 25 27 33 34 41 49 57 63 62 68 76 81 88 111 117 134 160
148 119 98 85 81 74 83 52 48 38 8 359 11 350 309 345 336 353 359 16 24 55 10 12 22 27 11 18 33 36 43 51 60 67 68 68 77 81 90 98 104 112 128
162 108 116 85 95 47 48 31 26 359 354 349 358 354 7 193 2 19 11 15 25 34 3 24 31 49 49 28 39 38 43 50 57 67 72 73 75 84 92 100 105 114 126
178 172 156 120 57 65 4 19 4 332 343 348 4 29 349 10 345 5 14 12 28 53 68 37 43 64 56 44 40 39 44 49 53 63 70 74 76 80 92 102 109 117 127
196 199 183 173 263 36 10 355 2 351 353 355 7 8 10 3 356 30 42 37 58 79 68 29 53 56 63 47 46 48 49 51 50 54 66 73 77 81 86 96 105 109 122
191 204 220 229 322 24 297 0 11 26 16 28 17 2 340 329 8 13 51 50 69 59 47 47 61 50 46 62 38 43 45 53 54 52 56 63 71 76 84 89 97 109 123
222 235 216 243 242 250 300 302 302 333 337 3 17 26 13 11 348 30 18 35 27 359 15 13 34 36 37 22 43 51 44 42 47 52 53 58 62 68 72 79 88 97 108
227 226 225 252 253 262 262 271 292 301 321 320 358 11 14 26 19 17 13 20 356 2 5 19 12 15 32 33 16 30 41 45 36 38 47 54 59 61 62 62 71 88 109
235 228 217 222 239 254 250 263 284 272 300 312 331 314 2 349 354 357 359 353 335 329 316 19 359 20 21 20 15 43 36 34 31 30 30 39 49 55 58 57 56 56 64
235 236 238 238 234 239 251 254 271 267 267 296 289 314 358 302 323 324 328 330 323 319 330 7 4 0 29 18 70 71 48 39 22 17 23 28 30 31 39 45 49 51 57
242 234 246 249 246 252 250 249 255 276 269 275 286 277 284 287 302 305 303 305 304 299 300 331 331 339 40 12 25 50 26 359 5 4 358 6 14 11 10 6 8 19 32
248 242 247 243 245 240 248 256 246 251 260 262 275 281 275 283 290 289 300 301 296 300 291 298 295 310 339 52 20 42 1 10 335 358 356 346 339 336 342 352 351 341 301
249 248 250 250 244 246 255 250 250 250 267 266 265 276 280 278 284 298 294 289 289 290 274 286 271 283 282 320 321 355 13 330 335 9 3 5 16 10 4 358 354 354 342
254 249 254 254 250 250 253 260 256 253 256 267 258 272 278 274 283 272 290 280 296 301 296 281 274 289 283 278 297 322 1 18 286 348 17 15 9 9 9 359 340 323 320
251 252 254 256 257 248 254 256 247 246 252 250 254 266 266 279 270 283 276 269 291 272 289 293 269 267 273 274 278 294 296 280 172 330 356 357 352 355 355 1 6 4 355
248 250 253 261 259 254 249 248 248 255 254 256 257 260 275 263 262 270 278 266 267 277 274 277 277 274 269 259 296 267 276 234 238 163 118 48 64 25 4 8 14 18 12
253 253 251 252 263 266 262 260 262 266 266 261 251 252 264 278 267 267 268 275 285 275 271 260 259 279 283 287 279 263 263 251 213 214 189 185 53 349 344 349 6 4 358
246 246 244 251 256 259 259 257 260 261 263 261 255 258 257 256 270 274 278 255 259 268 271 270 264 267 276 275 267 270 261 247 208 201 181 220 157 73 317 325 336 345 344
234 234 240 237 249 258 257 263 266 265 265 257 245 242 251 264 260 256 261 257 259 264 271 236 267 271 279 275 273 265 250 225 206 217 196 175 216 238 302 295 311 319 322
235 236 234 242 239 251 252 267 281 270 270 285 258 242 237 238 247 263 250 254 265 265 267 271 275 277 273 265 248 216 233 231 194 160 199 148 229 273 291 260 306 308 303
185 229 236 225 234 250 257 271 271 271 272 282 284 262 242 249 258 254 251 226 248 264 267 269 260 251 242 224 210 212 168 294 259 241 274 169 289 273 277 244 299 324 327
Wind_Speed_850mb
17 15 16 16 16 16 14 14 15 17 16 13 11 11 10 10 11 12 9 14 16 19 14 17 23 29 33 32 32 33 24 21 22 17 7 8 13 16 21 25 26 32 34
15 13 12 13 11 11 7 9 11 12 10 9 9 8 10 10 14 20 21 19 20 19 15 16 25 30 34 33 32 31 24 22 26 27 21 10 6 10 16 21 24 28 38
14 16 10 11 9 9 9 7 6 8 4 7 9 10 10 15 19 22 17 16 15 16 16 19 26 30 35 34 36 33 27 24 25 29 26 20 16 11 11 15 20 24 34
13 14 12 10 10 11 11 7 7 5 0 5 6 8 12 14 16 15 14 12 19 13 16 20 23 28 36 34 37 36 29 25 26 29 24 19 15 11 10 11 16 21 29
14 15 11 12 14 12 13 11 7 6 5 7 9 9 15 10 15 11 10 10 16 14 18 20 22 26 34 34 37 37 30 29 29 32 29 25 20 12 10 12 14 16 25
14 15 10 10 13 10 11 11 11 9 6 10 8 9 8 5 16 14 16 12 18 10 10 20 20 17 32 35 36 38 31 32 31 34 32 30 29 24 23 18 22 23 27
11 13 7 9 10 7 7 12 9 11 9 14 14 10 9 4 10 14 15 10 21 8 7 16 17 18 20 33 35 37 36 33 31 34 34 31 33 32 34 33 36 32 32
12 5 9 7 8 6 8 6 6 5 9 13 12 10 11 2 10 9 15 7 14 9 7 11 14 19 19 14 33 37 38 34 32 32 33 32 30 31 32 32 31 30 27
10 8 5 3 7 10 7 9 7 6 7 13 17 11 10 15 14 9 16 8 7 6 9 13 18 19 25 22 22 33 38 38 35 32 32 31 29 26 27 26 23 21 18
10 6 4 3 1 4 7 11 10 6 8 10 12 13 9 14 12 8 11 14 12 12 13 11 11 17 16 18 32 37 38 42 41 36 32 29 27 25 22 20 20 17 14
10 8 10 5 2 3 9 6 8 9 11 12 12 10 10 8 10 8 16 13 10 10 11 12 11 11 13 15 17 30 33 39 42 41 37 30 25 24 22 19 17 17 18
10 10 10 13 10 6 6 4 8 10 7 10 11 15 12 6 7 7 10 11 6 8 10 13 10 10 11 12 16 19 23 29 32 34 37 36 30 24 21 19 17 15 13
12 16 13 13 8 11 7 7 11 10 10 8 10 10 12 9 5 9 10 12 13 11 13 12 13 10 11 10 15 16 15 19 21 24 26 29 32 32 29 23 17 13 11
16 19 14 13 13 12 12 10 9 8 10 8 8 6 6 7 8 9 8 12 17 13 6 12 14 8 7 5 11 14 16 19 19 16 16 18 21 22 24 24 22 18 12
16 20 20 17 15 16 17 16 10 12 12 11 10 8 3 11 9 11 12 11 12 20 24 8 12 13 7 4 8 9 12 17 21 20 15 9 13 17 16 15 16 16 13
22 23 21 21 22 20 18 18 13 13 13 9 11 14 9 11 12 15 16 16 16 15 18 10 10 8 2 6 6 8 14 18 18 14 14 12 10 13 15 14 10 8 9
28 30 26 23 21 21 21 22 20 19 16 14 13 15 15 18 14 15 18 15 16 16 15 8 8 12 4 3 1 6 10 7 23 15 14 12 12 12 12 12 10 9 7
31 30 27 27 25 24 22 23 25 18 20 17 16 16 16 12 17 13 10 16 14 15 14 16 15 11 9 7 8 8 8 13 11 17 14 11 10 10 10 10 11 13 15
32 30 31 28 25 25 23 21 23 22 21 20 18 16 14 16 16 13 13 14 12 13 13 12 13 10 11 13 10 12 9 8 6 18 18 12 14 15 14 11 9 10 11
34 30 29 24 25 24 22 21 19 17 20 19 23 22 18 18 20 20 20 20 15 14 12 10 12 14 13 13 12 9 8 5 4 9 5 15 12 13 15 14 12 13 13
27 29 30 27 25 28 22 22 19 19 18 21 21 21 19 26 21 23 18 20 21 18 15 17 15 12 12 11 8 8 9 9 3 6 2 9 8 9 11 14 15 17 18
28 27 26 24 19 23 24 25 28 30 29 28 22 22 22 26 26 24 28 27 26 20 19 16 20 13 13 10 14 10 12 15 14 9 10 9 2 7 9 11 15 19 19
24 24 24 25 25 23 23 25 24 27 30 34 33 26 22 21 23 28 30 28 27 27 25 23 17 15 17 14 17 18 19 12 10 8 8 9 5 2 12 14 16 19 20
29 25 25 25 27 31 30 29 27 28 26 27 37 41 32 29 29 26 19 25 26 24 22 19 24 25 27 28 26 15 17 19 10 9 19 7 6 4 15 15 15 16 17
27 34 33 32 29 28 21 18 19 26 26 20 27 35 39 40 41 34 33 28 21 20 20 24 25 25 22 19 15 13 8 7 9 6 14 9 5 13 15 13 28 27 30
16 11 17 19 21 23 22 28 26 23 20 22 22 22 30 33 34 34 33 32 20 21 20 17 14 12 10 10 12 15 6 5 2 6 9 5 5 8 13 14 24 17 20
Wind_Direction_850mb
83 94 96 98 96 83 80 82 87 105 87 86 75 74 67 41 26 21 10 355 12 18 14 13 2 10 8 0 2 357 9 19 31 40 98 193 225 227 219 219 216 214 213
97 91 91 85 90 81 70 89 106 116 110 78 50 39 27 16 351 10 360 3 8 24 27 13 13 12 13 10 12 6 21 26 44 56 75 83 177 202 208 208 206 206 205
102 88 96 79 84 60 58 68 123 155 102 50 30 17 23 7 8 17 15 11 31 27 26 21 16 11 18 19 18 14 25 31 44 54 64 73 88 121 168 185 195 198 198
96 74 94 90 83 70 66 92 118 140 342 12 17 2 353 355 342 340 5 9 18 32 17 13 17 15 20 24 23 21 29 39 48 54 61 69 85 103 133 156 173 183 190
117 89 105 100 81 71 63 74 87 89 34 358 346 335 330 348 350 346 334 8 356 14 13 19 17 18 22 27 30 28 34 44 50 60 62 68 77 95 122 137 163 164 170
124 98 106 110 80 76 58 69 74 57 25 2 345 327 329 343 354 7 2 338 327 316 33 6 15 10 25 27 33 34 41 49 57 63 62 68 76 81 88 111 117 134 160
148 119 98 85 81 74 83 52 48 38 8 359 11 350 309 345 336 353 359 16 24 55 10 12 22 27 11 18 33 36 43 51 60 67 68 68 77 81 90 98 104 112 128
162 108 116 85 95 47 48 31 26 359 354 349 358 354 7 193 2 19 11 15 25 34 3 24 31 49 49 28 39 38 43 50 57 67 72 73 75 84 92 100 105 114 126
178 172 156 120 57 65 4 19 4 332 343 348 4 29 349 10 345 5 14 12 28 53 68 37 43 64 56 44 40 39 44 49 53 63 70 74 76 80 92 102 109 117 127
196 199 183 173 263 36 10 355 2 351 353 355 7 8 10 3 356 30 42 37 58 79 68 29 53 56 63 47 46 48 49 51 50 54 66 73 77 81 86 96 105 109 122
191 204 220 229 322 24 297 0 11 26 16 28 17 2 340 329 8 13 51 50 69 59 47 47 61 50 46 62 38 43 45 53 54 52 56 63 71 76 84 89 97 109 123
222 235 216 243 242 250 300 302 302 333 337 3 17 26 13 11 348 30 18 35 27 359 15 13 34 36 37 22 43 51 44 42 47 52 53 58 62 68 72 79 88 97 108
227 226 225 252 253 262 262 271 292 301 321 320 358 11 14 26 19 17 13 20 356 2 5 19 12 15 32 33 16 30 41 45 36 38 47 54 59 61 62 62 71 88 109
235 228 217 222 239 254 250 263 284 272 300 312 331 314 2 349 354 357 359 353 335 329 316 19 359 20 21 20 15 43 36 34 31 30 30 39 49 55 58 57 56 56 64
235 236 238 238 234 239 251 254 271 267 267 296 289 314 358 302 323 324 328 330 323 319 330 7 4 0 29 18 70 71 48 39 22 17 23 28 30 31 39 45 49 51 57
242 234 246 249 246 252 250 249 255 276 269 275 286 277 284 287 302 305 303 305 304 299 300 331 331 339 40 12 25 50 26 359 5 4 358 6 14 11 10 6 8 19 32
248 242 247 243 245 240 248 256 246 251 260 262 275 281 275 283 290 289 300 301 296 300 291 298 295 310 339 52 20 42 1 10 335 358 356 346 339 336 342 352 351 341 301
249 248 250 250 244 246 255 250 250 250 267 266 265 276 280 278 284 298 294 289 289 290 274 286 271 283 282 320 321 355 13 330 335 9 3 5 16 10 4 358 354 354 342
254 249 254 254 250 250 253 260 256 253 256 267 258 272 278 274 283 272 290 280 296 301 296 281 274 289 283 278 297 322 1 18 286 348 17 15 9 9 9 359 340 323 320
251 252 254 256 257 248 254 256 247 246 252 250 254 266 266 279 270 283 276 269 291 272 289 293 269 267 273 274 278 294 296 280 172 330 356 357 352 355 355 1 6 4 355
248 250 253 261 259 254 249 248 248 255 254 256 257 260 275 263 262 270 278 266 267 277 274 277 277 274 269 259 296 267 276 234 238 163 118 48 64 25 4 8 14 18 12
253 253 251 252 263 266 262 260 262 266 266 261 251 252 264 278 267 267 268 275 285 275 271 260 259 279 283 287 279 263 263 251 213 214 189 185 53 349 344 349 6 4 358
246 246 244 251 256 259 259 257 260 261 263 261 255 258 257 256 270 274 278 255 259 268 271 270 264 267 276 275 267 270 261 247 208 201 181 220 157 73 317 325 336 345 344
234 234 240 237 249 258 257 263 266 265 265 257 245 242 251 264 260 256 261 257 259 264 271 236 267 271 279 275 273 265 250 225 206 217 196 175 216 238 302 295 311 319 322
235 236 234 242 239 251 252 267 281 270 270 285 258 242 237 238 247 263 250 254 265 265 267 271 275 277 273 265 248 216 233 231 194 160 199 148 229 273 291 260 306 308 303
185 229 236 225 234 250 257 271 271 271 272 282 284 262 242 249 258 254 251 226 248 264 267 269 260 251 242 224 210 212 168 294 259 241 274 169 289 273 277 244 299 324 327